Regional Weather Roundup
Issued by NWS Newport/Morehead, NC

Home | Current Version | Previous Version | Text Only | Print | Product List | Glossary On
Versions: 1 2 3 4 5 6 7 8 9 10 11 12 13 14 15 16 17 18 19 20 21 22 23 24 25 26 27 28 29 30 31 32 33 34 35 36 37 38 39 40 41 42 43 44 45 46 47 48 49 50
000
ASUS42 KMHX 200124
RWRMHX
WEATHER ROUNDUP FOR EASTERN NORTH CAROLINA
NATIONAL WEATHER SERVICE NEWPORT/MOREHEAD CITY NC
900 PM EDT SUN APR 19 2015

NOTE: "FAIR" INDICATES FEW OR NO CLOUDS BELOW 12,000 FEET
WITH NO SIGNIFICANT WEATHER AND/OR OBSTRUCTIONS TO VISIBILITY

NCZ015>017-031-032-045>047-102-103-200200-
NORTH COAST

CITY           SKY/WX    TMP DP  RH WIND       PRES   REMARKS
EDENTON        LGT RAIN  66  65  94 SE8       29.91F
ELIZABETH CITY RAIN      66  64  94 SE15G22   29.94F FOG
KITTY HAWK     RAIN      61  60  96 SE10G16   29.95S
MANTEO         DRIZZLE   65  63  93 SE15      29.95F

$$

NCZ045>047-081-094-103-104-200200-
CENTRAL COAST

CITY           SKY/WX    TMP DP  RH WIND       PRES   REMARKS
FRISCO         LGT RAIN  67  64  90 SE18G29   29.95S
SWANQUARTER      N/A     70 N/A N/A SE10G23   29.88S

$$

NCZ095-097-098-100-101-200200-
SOUTHERN COAST

CITY           SKY/WX    TMP DP  RH WIND       PRES   REMARKS
BEAUFORT       CLOUDY    68  67  96 SE14      29.91F
CEDAR ISLAND     N/A     70 N/A N/A SE24      29.94S
JACKSONVILLE   CLOUDY    70  66  87 S13       29.88S
PINEY ISLAND   LGT RAIN N/A N/A N/A SE16G23   29.91S
WILMINGTON     CLOUDY    70  68  93 SE8G17    29.86F


$$

NCZ011>013-027>030-043-044-078>080-089-090>093-098-200200-
COASTAL PLAIN

CITY           SKY/WX    TMP DP  RH WIND       PRES   REMARKS
AHOSKIE        HVY RAIN  65  64  96 SE6       29.90S
CLINTON        LGT RAIN  69  69  99 SE5       29.84F
ELIZABETHTOWN  RAIN      70  70 100 W15G22    29.88R
GOLDSBORO      CLOUDY    69  67  95 SE9       29.83F
GREENVILLE     CLOUDY    68  68 100 SE6       29.90F
HAVELOCK       CLOUDY    69  66  90 S10       29.91F
KENANSVILLE    CLOUDY    68  67  94 SE8       29.87S
KINSTON        CLOUDY    68  68 100 SE10      29.88S
NEW BERN       CLOUDY    69  66  90 S13       29.90F
RICHLANDS      CLOUDY    68  64  88 S10G17    29.88S
ROCKY MOUNT    CLOUDY    68  66  93 VRB7      29.85F
WASHINGTON     CLOUDY    67  66  96 SE6       29.90S
WHITEVILLE     RAIN      71  69  93 W5        29.85R

$$

AMZ130-135-150-152-154-156-158-170-250-252-270-ANZ085-086-088-633-658-670-200200-
MARINE OBSERVATIONS

STATION/POSITION TIME  TEMP    WIND        PRES    WAVE   SWELL
                       AIR SEA DIR/SP/G            HT/PER HT/PER
                 (UTC) (F)     (DEG/KT/KT) (MB)    (FT/S) (FT/S)
CHESAPEAKE LIGHT 0100   58     110/ 25/ 26 1014.5
64 E VA BEACH    0050   65 59  120/ 16/ 17 1015.3    8/ 7   5/11
DUCK             0100   60 57  130/ 13/ 15 1013.4
2 E DUCK         0011      57                N/A     5/ 7   2/13
10 NE DUCK       NOT AVBL
OREGON INLET     0100   61 63  110/  8/ 12 1014.4
HATTERAS CG      0100   71 67  140/ 16/ 21 1013.6
DIAMOND BUOY     0050   73 72  150/ 25/ 31 1013.7    7/ 6   2/12
CAPE LOOKOUT     0100   69     150/ 17/ 18 1012.7
BEAUFORT LAB     0100   67 64  150/ 11/ 17 1011.8
27 SE WRIGHTSVLE 0100   69 73  170/ 17/ 23   N/A
5 SE WRIGHTSVLE  0100   68 65  140/ 10/ 14 1011.1
225 S CAPE HAT   0050   73 75  150/ 12/ 14 1015.2    4/11   3/11
41 SE CHARLESTON 0050   68 75  180/ 33/ 43 1009.1    3/ 9   2/ 9

$$


USA.gov is the U.S. government's official web portal to all federal, state and local government web resources and services.